Home   Weather   Tuscaloosa   Past weeks

Flag for USA Past Weather in Tuscaloosa, Alabama, USA — Yesterday and Last 2 Weeks

Now
93 °F

Sunny.


Feels Like: 103 °F
Forecast: 73 / 92 °F
Wind: No wind

Location: Tuscaloosa Municipal Airport

Current Time: Aug 20, 2017 at 2:38:22 pm

Latest Report: Aug 20, 2017 at 1:53 pm


Visibility: 10 mi

Pressure: 30.04 "Hg

Humidity: 54%

Dew Point: 74 °F

Location of TuscaloosaLocation

Past Weather in Tuscaloosa — Graph

°F

Tuscaloosa Temperature Yesterday

Maximum temperature yesterday: 92 °F (at 1:53 pm)
Minimum temperature yesterday: 72 °F (at 2:44 am)
Average temperature yesterday: 81 °F

High & Low Weather Summary for the Past Weeks

 TemperatureHumidityPressure
High93 °F (Aug 13, 3:53 pm)100% (Aug 6, 3:53 am)30.16 "Hg (Aug 6, 3:53 am)
Low72 °F (Aug 8, 7:33 am)50% (Aug 5, 4:53 pm)29.87 "Hg (Aug 14, 3:53 pm)
Average79 °F91%30.00 "Hg
* Reported Aug 5 12:53 pm — Aug 20 12:53 pm, Tuscaloosa. Weather by CustomWeather, © 2017

Note: Actual official high and low records may vary slightly from our data, if they occured in-between our weather recording intervals... More about our weather records

Advertising

Tuscaloosa Weather History for the Previous 24 Hours

Scroll right to see more
 ConditionsComfort  
Time TempWeatherWind HumidityBarometerVisibility
12:53 pm
Sun, Aug 20
91 °FSunny.3 mph60%30.06 "Hg10 mi
11:53 am90 °FPassing clouds.No wind63%30.08 "Hg10 mi
10:53 am89 °FSunny.6 mph68%30.09 "Hg10 mi
9:53 am85 °FSunny.No wind80%30.08 "Hg10 mi
8:53 am81 °FSunny.3 mph88%30.07 "Hg9 mi
7:53 am78 °FSunny.No wind93%30.06 "Hg9 mi
6:53 am74 °FFog.No wind100%30.04 "Hg6 mi
5:53 am74 °FClear.No wind100%30.01 "Hg8 mi
4:53 am74 °FClear.No wind100%30.00 "Hg9 mi
3:53 am75 °FFog.No wind100%29.99 "Hg6 mi
2:53 am75 °FClear.No wind100%29.99 "Hg7 mi
1:53 am75 °FClear.No wind100%29.98 "Hg9 mi
12:53 am76 °FClear.No wind100%29.99 "Hg9 mi
11:53 pm
Sat, Aug 19
77 °FClear.No wind96%30.00 "Hg10 mi
10:53 pm78 °FClear.No wind93%29.99 "Hg10 mi
9:53 pm77 °FPassing clouds.5 mph100%29.98 "Hg10 mi
8:53 pm81 °FClear.No wind88%29.97 "Hg10 mi
7:53 pm82 °FClear.No wind88%29.95 "Hg10 mi
6:53 pm84 °FSunny.6 mph77%29.94 "Hg10 mi
5:53 pm89 °FSunny.5 mph68%29.92 "Hg10 mi
4:53 pm90 °FSunny.6 mph61%29.93 "Hg10 mi
3:53 pm87 °FSunny.6 mph69%29.94 "Hg10 mi
3:20 pm88 °FThundershowers. Sunny.7 mph65%29.96 "Hg10 mi
2:53 pm85 °FThunderstorms. Scattered clouds.6 mph75%29.95 "Hg10 mi
2:29 pm85 °FThunderstorms. Broken clouds.8 mph77%29.97 "Hg10 mi
Weather by CustomWeather, © 2017

See weather overviewHow to use our weather pages